Change the Weather History Date:

Wednesday, November 14, 2012

  Actual Average Record
Temperature  
Mean Temperature 74 °F -  
Max Temperature 80 °F 83 °F 89 °F (1997)
Min Temperature 68 °F 68 °F 60 °F (2007)
Cooling Degree Days 9    
Growing Degree Days 24 (Base 50)    
Moisture  
Dew Point 67 °F    
Average Humidity 82    
Maximum Humidity 94    
Minimum Humidity 61    
Precipitation  
Precipitation 0.00 in - - ()
Sea Level Pressure  
Sea Level Pressure 30.05 in    
Wind  
Wind Speed 5 mph ()    
Max Wind Speed 14 mph    
Max Gust Speed -    
Visibility 6.9 miles    
Events Rain    
Averages and records for this station are not official NWS values.
T = Trace of Precipitation, MM = Missing Value Source: Averaged Metar Reports

Daily Weather History Graph

Daily Weather History Graph

Search for Another Location

Airport or City:

Trip Planner

Search our weather history database for the weather conditions in past years. The results will help you decide how hot, cold, wet, or windy it might be!

Date:

Astronomy

Nov. 14, 2012 Rise Set
Actual Time 5:57 AM CST 5:06 PM CST
Civil Twilight 5:34 AM CST 5:29 PM CST
Nautical Twilight 5:07 AM CST 5:56 PM CST
Astronomical Twilight 4:40 AM CST 6:22 PM CST
Moon 6:40 AM CST (11/14) 6:01 PM CST (11/14)
Length of Visible Light 11h 55m
Length of Day
11h 08m
New Moon, 1% of the Moon is Illuminated
Nov 14
New Moon
Nov 20
First Quarter
Nov 28
Full
Dec 6
Last Quarter
Dec 13
New

Hourly Weather History & Observations

Time (CST) Temp. Heat Index Dew Point Humidity Pressure Visibility Wind Dir Wind Speed Gust Speed Precip Events Conditions
12:41 AM 69.8 °F - 66.2 °F 88% 30.02 in 7.0 mi NNW 3.5 mph - N/A   Partly Cloudy
1:40 AM 68.0 °F - 66.2 °F 94% 30.01 in 7.0 mi NW 3.5 mph - N/A   Partly Cloudy
2:46 AM 68.0 °F - 66.2 °F 94% 30.00 in 7.0 mi NW 4.6 mph - N/A   Scattered Clouds
3:45 AM 69.8 °F - 68.0 °F 94% 30.02 in 7.0 mi NNW 6.9 mph - N/A   Scattered Clouds
4:48 AM 71.6 °F - 69.8 °F 94% 30.02 in 7.0 mi NNW 2.3 mph - N/A   Scattered Clouds
5:46 AM 69.8 °F - 68.0 °F 94% 30.01 in 7.0 mi NW 5.8 mph - N/A   Scattered Clouds
6:48 AM 71.6 °F - 69.8 °F 94% 30.06 in 7.0 mi NE 4.6 mph - N/A   Scattered Clouds
7:48 AM 73.4 °F - 69.8 °F 88% 30.08 in 7.0 mi Calm Calm - N/A   Mostly Cloudy
8:49 AM 80.6 °F 83.2 °F 68.0 °F 65% 30.09 in 7.0 mi ENE 9.2 mph - N/A   Scattered Clouds
9:45 AM 80.6 °F 83.2 °F 68.0 °F 65% 30.09 in 7.0 mi ENE 13.8 mph - N/A   Mostly Cloudy
10:42 AM 80.6 °F 83.2 °F 68.0 °F 65% 30.08 in 7.0 mi ENE 11.5 mph - N/A   Mostly Cloudy
11:47 AM 80.6 °F 83.2 °F 68.0 °F 65% 30.07 in 7.0 mi East 11.5 mph - N/A   Mostly Cloudy
12:45 PM 80.6 °F 83.2 °F 68.0 °F 65% 30.04 in 7.0 mi East 9.2 mph - N/A   Mostly Cloudy
1:46 PM 80.6 °F 82.7 °F 66.2 °F 61% 30.03 in 7.0 mi NE 8.1 mph - N/A   Mostly Cloudy
2:47 PM 78.8 °F - 64.4 °F 61% 30.02 in 7.0 mi ENE 8.1 mph - N/A   Mostly Cloudy
3:47 PM 78.8 °F - 69.8 °F 74% 30.03 in 7.0 mi NE 2.3 mph - N/A   Mostly Cloudy
4:49 PM 71.6 °F - 68.0 °F 88% 30.04 in 5.0 mi NE 8.1 mph - N/A Rain Light Rain
5:10 PM 71.6 °F - 68.0 °F 88% 30.04 in 6.0 mi NNE 2.3 mph - N/A   Mostly Cloudy
5:43 PM 71.6 °F - 68.0 °F 88% 30.04 in 7.0 mi Calm Calm - N/A   Mostly Cloudy
6:46 PM 71.6 °F - 69.8 °F 94% 30.06 in 7.0 mi North 2.3 mph - N/A   Scattered Clouds
7:44 PM 71.6 °F - 66.2 °F 83% 30.08 in 7.0 mi North 2.3 mph - N/A   Clear
8:43 PM 69.8 °F - 66.2 °F 88% 30.09 in 7.0 mi North 2.3 mph - N/A   Scattered Clouds
9:48 PM 69.8 °F - 66.2 °F 88% 30.09 in 7.0 mi NNE 5.8 mph - N/A   Scattered Clouds
10:47 PM 69.8 °F - 64.4 °F 83% 30.07 in 7.0 mi Calm Calm - N/A   Scattered Clouds
11:46 PM 69.8 °F - 64.4 °F 83% 30.04 in 7.0 mi North 5.8 mph - N/A   Scattered Clouds